Regional Weather Roundup
Issued by NWS

Home | Current Version | Previous Version | Text Only | Print | Product List | Glossary Off
Versions: 1 2 3 4 5 6 7 8 9 10 11 12 13 14 15 16 17 18 19 20 21 22 23 24 25 26 27 28 29 30 31 32 33 34 35 36 37 38 39 40 41 42 43 44 45 46 47 48 49 50

168
ASUS45 KCYS 260310
RWRWY

WYOMING REGIONAL WEATHER ROUNDUP
NATIONAL WEATHER SERVICE CHEYENNE WY
900 PM MDT WED MAY 25 2016

NOTE:  "FAIR" INDICATES FEW OR NO CLOUDS BELOW 12,000 FEET
WITH NO SIGNIFICANT WEATHER AND/OR OBSTRUCTIONS TO VISIBILITY.

WYZ001-260400-
YELLOWSTONE NATIONAL PARK

CITY           SKY/WX    TMP DP  RH WIND       PRES   REMARKS
LK YELLOWSTONE   N/A     35  33  92 CALM      30.10S
W YELLOWSTONE  NOT AVBL

$$
WYZ002>013-054>058-071-098>099-260400-
NORTHERN WYOMING

CITY           SKY/WX    TMP DP  RH WIND       PRES   REMARKS
JACKSON        MOCLDY    45  37  76 W7        30.07
CODY           CLOUDY    55  36  47 W10G16    29.94S
GREYBULL       CLOUDY    55  47  74 CALM      29.93R
WORLAND        LGT RAIN  53  47  79 NW8       29.96R
SHERIDAN       FAIR      49  45  86 CALM      29.90S
BUFFALO          N/A     52  40  63 W9        29.94F
GILLETTE       FAIR      44  42  93 N3        29.95R
HULETT         FAIR      50  46  87 W3        29.96R
NEWCASTLE      FAIR      54  41  62 W3        29.94R

$$
WYZ014>020-022>026-101>103-260400-
CENTRAL WYOMING

CITY           SKY/WX    TMP DP  RH WIND       PRES   REMARKS
BIG PINEY      FAIR      43  34  70 NW9       30.10R
PINEDALE       FAIR      41  37  87 NW13      30.11R
DUBOIS         CLOUDY    43  32  65 NW8       30.06R
LANDER         MOCLDY    55  30  38 SW12      29.96R
RIVERTON       CLOUDY    57  34  41 NW14      29.97R
CASPER         FAIR      46  41  82 VRB6      29.97S
DOUGLAS          N/A    N/A N/A N/A MISG      29.98R

$$
WYZ021-027>030-104>119-260400-
SOUTHERN WYOMING

CITY           SKY/WX    TMP DP  RH WIND       PRES   REMARKS
EVANSTON       MOCLDY    48  35  60 NE8       30.10S
KEMMERER         N/A     43  32  65 SW5       30.12R
FORT BRIDGER   LGT RAIN  43  43 100 N7        30.14S
ROCK SPRINGS   FAIR      44  35  70 W16       30.09F
DIXON          MOCLDY    50  33  51 CALM      30.10R
RAWLINS        FAIR      49  29  46 W10       30.07R
SARATOGA       FAIR      45  32  61 W7        30.08S
LARAMIE        FAIR      44  33  65 N7        30.06R
CHEYENNE       FAIR      54  35  48 N8        30.02R
TORRINGTON     FAIR      58  42  55 N15       29.94R
PINE BLUFFS    LGT RAIN  52  43  71 N12       29.98R

$$




USA.gov is the U.S. government's official web portal to all federal, state and local government web resources and services.